TimeMDT,TemperatureF,Dew PointF,Humidity,Sea Level PressureIn,VisibilityMPH,Wind Direction,Wind SpeedMPH,Gust SpeedMPH,PrecipitationIn,Events,Conditions,WindDirDegrees,DateUTC
12:15 AM,66.2,59.0,78,29.87,10.0,SE,13.8,21.9,N/A,,Overcast,140,2013-06-19 06:15:00
12:35 AM,66.2,59.0,78,29.86,10.0,SE,15.0,-,N/A,,Mostly Cloudy,140,2013-06-19 06:35:00
12:55 AM,64.4,59.0,83,29.86,10.0,SE,10.4,-,N/A,,Overcast,140,2013-06-19 06:55:00
1:15 AM,64.4,59.0,83,29.85,10.0,SSE,10.4,-,N/A,,Mostly Cloudy,150,2013-06-19 07:15:00
1:35 AM,64.4,59.0,83,29.85,10.0,SE,10.4,-,N/A,,Clear,140,2013-06-19 07:35:00
1:55 AM,62.6,59.0,88,29.85,10.0,ESE,6.9,-,N/A,,Clear,110,2013-06-19 07:55:00
2:15 AM,60.8,59.0,94,29.85,10.0,East,8.1,-,N/A,,Clear,90,2013-06-19 08:15:00
2:35 AM,60.8,59.0,94,29.85,10.0,ESE,9.2,-,N/A,,Clear,110,2013-06-19 08:35:00
2:55 AM,60.8,59.0,94,29.85,10.0,ESE,9.2,-,N/A,,Clear,120,2013-06-19 08:55:00
3:15 AM,60.8,59.0,94,29.85,10.0,ESE,9.2,-,N/A,,Clear,120,2013-06-19 09:15:00
3:35 AM,59.0,59.0,100,29.84,10.0,ESE,8.1,-,N/A,,Clear,110,2013-06-19 09:35:00
3:55 AM,59.0,59.0,100,29.84,10.0,ESE,8.1,-,N/A,,Clear,120,2013-06-19 09:55:00
4:15 AM,59.0,59.0,100,29.83,10.0,SE,10.4,-,N/A,,Clear,130,2013-06-19 10:15:00
4:35 AM,59.0,59.0,100,29.83,10.0,ESE,10.4,-,N/A,,Clear,120,2013-06-19 10:35:00
4:55 AM,59.0,59.0,100,29.83,10.0,ESE,9.2,-,N/A,,Clear,110,2013-06-19 10:55:00
5:15 AM,59.0,59.0,100,29.83,10.0,ESE,10.4,-,N/A,,Scattered Clouds,110,2013-06-19 11:15:00
5:35 AM,59.0,59.0,100,29.83,10.0,ESE,9.2,-,N/A,,Mostly Cloudy,110,2013-06-19 11:35:00
5:55 AM,60.8,59.0,94,29.83,10.0,ESE,9.2,-,N/A,,Overcast,110,2013-06-19 11:55:00
6:15 AM,60.8,59.0,94,29.82,10.0,ESE,8.1,-,N/A,,Scattered Clouds,110,2013-06-19 12:15:00
6:35 AM,60.8,59.0,94,29.81,10.0,ESE,9.2,-,N/A,,Clear,120,2013-06-19 12:35:00
6:55 AM,60.8,59.0,94,29.81,10.0,ESE,10.4,-,N/A,,Clear,120,2013-06-19 12:55:00
7:15 AM,62.6,59.0,88,29.81,10.0,ESE,10.4,-,N/A,,Partly Cloudy,120,2013-06-19 13:15:00
7:35 AM,64.4,60.8,88,29.80,10.0,SE,12.7,17.3,N/A,,Clear,140,2013-06-19 13:35:00
7:55 AM,66.2,60.8,83,29.80,10.0,ESE,16.1,20.7,N/A,,Clear,120,2013-06-19 13:55:00
8:15 AM,66.2,59.0,78,29.80,10.0,ESE,17.3,-,N/A,,Clear,120,2013-06-19 14:15:00
8:35 AM,68.0,60.8,78,29.79,10.0,ESE,16.1,20.7,N/A,,Clear,110,2013-06-19 14:35:00
8:55 AM,68.0,59.0,73,29.79,10.0,SE,18.4,21.9,N/A,,Clear,130,2013-06-19 14:55:00
9:15 AM,69.8,59.0,68,29.79,10.0,SE,16.1,21.9,N/A,,Clear,130,2013-06-19 15:15:00
9:35 AM,71.6,59.0,64,29.78,10.0,SE,19.6,24.2,N/A,,Clear,130,2013-06-19 15:35:00
9:55 AM,73.4,59.0,61,29.78,10.0,SE,19.6,26.5,N/A,,Clear,130,2013-06-19 15:55:00
10:15 AM,75.2,59.0,57,29.77,10.0,SE,19.6,27.6,N/A,,Clear,130,2013-06-19 16:15:00
10:35 AM,75.2,59.0,57,29.77,10.0,ESE,15.0,25.3,N/A,,Clear,110,2013-06-19 16:35:00
10:55 AM,77.0,57.2,50,29.77,10.0,SE,20.7,27.6,N/A,,Clear,130,2013-06-19 16:55:00
11:15 AM,77.0,59.0,54,29.77,10.0,ESE,24.2,31.1,N/A,,Clear,120,2013-06-19 17:15:00
11:35 AM,77.0,59.0,54,29.77,10.0,SE,23.0,34.5,N/A,,Clear,130,2013-06-19 17:35:00
11:55 AM,77.0,59.0,54,29.76,10.0,SE,23.0,34.5,N/A,,Clear,130,2013-06-19 17:55:00
12:15 PM,78.8,59.0,51,29.75,10.0,SE,24.2,32.2,N/A,,Clear,140,2013-06-19 18:15:00
12:35 PM,80.6,57.2,45,29.74,10.0,ESE,27.6,38.0,N/A,,Clear,120,2013-06-19 18:35:00
12:55 PM,80.6,57.2,45,29.73,10.0,ESE,25.3,36.8,N/A,,Clear,120,2013-06-19 18:55:00
1:15 PM,80.6,57.2,45,29.73,10.0,SE,19.6,35.7,N/A,,Clear,130,2013-06-19 19:15:00
1:35 PM,80.6,55.4,42,29.73,10.0,SE,24.2,36.8,N/A,,Clear,130,2013-06-19 19:35:00
1:55 PM,82.4,57.2,42,29.73,10.0,SE,25.3,36.8,N/A,,Clear,130,2013-06-19 19:55:00
2:15 PM,80.6,57.2,45,29.73,10.0,SE,28.8,39.1,N/A,,Clear,140,2013-06-19 20:15:00
2:35 PM,82.4,55.4,39,29.72,10.0,SE,29.9,40.3,N/A,,Clear,140,2013-06-19 20:35:00
2:55 PM,82.4,55.4,39,29.72,10.0,SE,25.3,39.1,N/A,,Clear,140,2013-06-19 20:55:00
3:15 PM,82.4,55.4,39,29.71,10.0,SE,28.8,36.8,N/A,,Clear,130,2013-06-19 21:15:00
3:35 PM,80.6,57.2,45,29.71,10.0,SE,24.2,35.7,N/A,,Clear,130,2013-06-19 21:35:00
3:55 PM,80.6,55.4,42,29.70,10.0,SE,24.2,35.7,N/A,,Clear,130,2013-06-19 21:55:00
4:15 PM,80.6,57.2,45,29.70,10.0,SE,27.6,38.0,N/A,,Clear,130,2013-06-19 22:15:00
4:35 PM,80.6,57.2,45,29.70,10.0,SE,26.5,39.1,N/A,,Clear,130,2013-06-19 22:35:00
4:55 PM,80.6,57.2,45,29.69,10.0,SE,28.8,36.8,N/A,,Clear,130,2013-06-19 22:55:00
5:15 PM,80.6,59.0,48,29.69,10.0,SE,24.2,40.3,N/A,,Clear,130,2013-06-19 23:15:00
5:35 PM,80.6,57.2,45,29.68,10.0,SE,29.9,41.4,N/A,,Clear,130,2013-06-19 23:35:00
5:55 PM,78.8,57.2,47,29.68,10.0,SE,25.3,40.3,N/A,,Clear,130,2013-06-19 23:55:00
6:15 PM,78.8,59.0,51,29.68,10.0,SE,21.9,39.1,N/A,,Clear,130,2013-06-20 00:15:00
6:35 PM,77.0,59.0,54,29.67,10.0,ESE,29.9,38.0,N/A,,Clear,120,2013-06-20 00:35:00
6:55 PM,77.0,59.0,54,29.67,10.0,ESE,25.3,34.5,N/A,,Clear,120,2013-06-20 00:55:00
7:15 PM,77.0,59.0,54,29.67,10.0,ESE,23.0,34.5,N/A,,Clear,120,2013-06-20 01:15:00
7:35 PM,75.2,59.0,57,29.67,10.0,ESE,25.3,34.5,N/A,,Partly Cloudy,120,2013-06-20 01:35:00
7:55 PM,75.2,60.8,61,29.66,10.0,ESE,21.9,32.2,N/A,,Clear,120,2013-06-20 01:55:00
8:15 PM,75.2,62.6,65,29.66,10.0,ESE,24.2,34.5,N/A,,Clear,110,2013-06-20 02:15:00
8:35 PM,73.4,60.8,65,29.67,10.0,ESE,23.0,32.2,N/A,,Clear,120,2013-06-20 02:35:00
8:55 PM,73.4,60.8,65,29.66,10.0,ESE,27.6,34.5,N/A,,Partly Cloudy,110,2013-06-20 02:55:00
9:15 PM,73.4,62.6,69,29.67,10.0,ESE,23.0,33.4,N/A,,Clear,120,2013-06-20 03:15:00
9:35 PM,73.4,60.8,65,29.66,10.0,ESE,26.5,36.8,N/A,,Clear,120,2013-06-20 03:35:00
9:55 PM,71.6,60.8,69,29.66,10.0,ESE,23.0,31.1,N/A,,Clear,110,2013-06-20 03:55:00
10:15 PM,71.6,62.6,73,29.65,10.0,ESE,23.0,34.5,N/A,,Clear,110,2013-06-20 04:15:00
10:35 PM,71.6,62.6,73,29.64,10.0,ESE,24.2,28.8,N/A,,Clear,110,2013-06-20 04:35:00
10:55 PM,71.6,62.6,73,29.63,10.0,ESE,23.0,34.5,N/A,Rain,Light Rain,110,2013-06-20 04:55:00
11:15 PM,69.8,62.6,78,29.63,10.0,ESE,21.9,29.9,N/A,,Clear,110,2013-06-20 05:15:00
11:35 PM,71.6,62.6,73,29.62,10.0,ESE,24.2,35.7,N/A,Rain,Light Rain,110,2013-06-20 05:35:00
11:55 PM,71.6,62.6,73,29.60,10.0,ESE,21.9,35.7,N/A,,Clear,120,2013-06-20 05:55:00